Вернуться в каталог

NOAA 16 DEB

АктивенPO
NORAD 41057·DEBRIS·🇺🇸 United States

Запущен Sep 21, 2000 с Vandenberg Space Force Base

Loading…

Ближайшие Пролёты (ближайшие 24 часа)

TLE

СвежийSource: Space-Track

Эпоха: Sep 14, 2026, 01:07 UTC

1 41057U 00055Q   26257.04674775  .00003697  00000-0  10799-2 0  9992
2 41057  98.9583  66.3512 0017573 272.4838  87.4339 14.44597200561395

Отслеживайте NOAA 16 DEB в реальном времени с AllMySat

Download on the App Store